Weather History for Spokane Fairchild, WA

Change the Weather History Date:

Wednesday, September 3, 2014

  Actual Average Record
Temperature  
Mean Temperature 54 °F -  
Max Temperature 62 °F 74 °F 96 °F (1998)
Min Temperature 46 °F 49 °F 39 °F (2000)
Degree Days  
Heating Degree Days 11    
Growing Degree Days 4 (Base 50)    
Moisture  
Dew Point 43 °F    
Average Humidity 74    
Maximum Humidity 93    
Minimum Humidity 43    
Precipitation  
Precipitation 0.02 in - - ()
Sea Level Pressure  
Sea Level Pressure 29.87 in    
Wind  
Wind Speed 13 mph (WSW)    
Max Wind Speed 17 mph    
Max Gust Speed 24 mph    
Visibility 10 miles    
Events Rain    
Averages and records for this station are not official NWS values.
T = Trace of Precipitation, MM = Missing Value Source: NWS Daily Summary

Daily Weather History Graph

Daily Weather History Graph

Search for Another Location

Airport:

Trip Planner

Search our weather history database for the weather conditions in past years. The results will help you decide how hot, cold, wet, or windy it might be!

Date:

Astronomy

Sep. 03, 2014 Rise Set
Actual Time 6:11 AM PDT 7:26 PM PDT
Civil Twilight 5:40 AM PDT 7:58 PM PDT
Nautical Twilight 5:01 AM PDT 8:36 PM PDT
Astronomical Twilight 4:20 AM PDT 9:17 PM PDT
Moon 3:27 PM PDT (9/3) No Moon Set
Length of Visible Light 14h 18m
Length of Day
13h 14m
Waxing Gibbous, 65% of the Moon is Illuminated
Sep 3
Waxing Gibbous
Sep 8
Full
Sep 15
Last Quarter
Sep 23
New
Oct 1
First Quarter

Hourly Weather History & Observations

Time (PDT) Temp. Windchill Dew Point Humidity Pressure Visibility Wind Dir Wind Speed Gust Speed Precip Events Conditions
12:58 AM 52.9 °F - 46.0 °F 78% 29.69 in 10.0 mi SSW 12.7 mph - N/A   Overcast
1:58 AM 48.7 °F - 39.2 °F 70% 29.70 in 10.0 mi SSW 12.7 mph - N/A   Partly Cloudy
2:16 AM 48.2 °F - 39.2 °F 71% 29.71 in 10.0 mi SSW 11.5 mph - N/A Rain Light Rain
2:22 AM 48.2 °F - 41.0 °F 76% 29.72 in 9.0 mi SSW 15.0 mph - N/A Rain Light Rain
2:35 AM 48.2 °F - 42.8 °F 82% 29.72 in 9.0 mi SW 15.0 mph - N/A Rain Light Rain
2:39 AM 48.2 °F - 42.8 °F 82% 29.72 in 10.0 mi SW 15.0 mph - N/A   Overcast
2:42 AM 48.2 °F - 42.8 °F 82% 29.72 in 10.0 mi SW 17.3 mph - N/A Rain Light Rain
2:51 AM 48.2 °F - 42.8 °F 82% 29.72 in 10.0 mi SW 16.1 mph - N/A   Mostly Cloudy
2:58 AM 47.8 °F - 41.9 °F 80% 29.72 in 10.0 mi SW 15.0 mph - 0.01 in   Mostly Cloudy
3:58 AM 47.5 °F - 39.4 °F 73% 29.75 in 10.0 mi SW 11.5 mph 21.9 mph N/A   Overcast
4:58 AM 47.3 °F - 39.7 °F 75% 29.76 in 10.0 mi SW 16.1 mph - N/A   Overcast
5:58 AM 47.1 °F - 40.5 °F 78% 29.78 in 10.0 mi SW 16.1 mph - N/A   Mostly Cloudy
6:37 AM 46.4 °F 40.1 °F 41.0 °F 81% 29.81 in 10.0 mi SW 15.0 mph - N/A Rain Light Rain
6:58 AM 46.4 °F 39.5 °F 42.8 °F 87% 29.81 in 8.0 mi SW 17.3 mph - 0.01 in Rain Light Rain
7:46 AM 46.4 °F 40.7 °F 42.8 °F 87% 29.84 in 10.0 mi SSW 12.7 mph - N/A   Overcast
7:51 AM 46.4 °F 40.1 °F 42.8 °F 87% 29.84 in 10.0 mi SSW 15.0 mph 23.0 mph N/A Rain Light Rain
8:24 AM 48.2 °F - 44.6 °F 87% 29.85 in 10.0 mi SW 13.8 mph - N/A   Overcast
8:58 AM 48.7 °F - 44.2 °F 84% 29.86 in 10.0 mi SW 15.0 mph - 0.00 in   Overcast
9:58 AM 52.5 °F - 45.7 °F 78% 29.88 in 10.0 mi SW 13.8 mph - N/A   Overcast
10:58 AM 57.2 °F - 41.2 °F 55% 29.91 in 10.0 mi West 13.8 mph 24.2 mph N/A   Overcast
11:58 AM 59.4 °F - 39.9 °F 49% 29.91 in 10.0 mi WNW 16.1 mph 24.2 mph N/A   Mostly Cloudy
12:58 PM 59.0 °F - 41.2 °F 52% 29.94 in 10.0 mi WNW 10.4 mph - N/A   Overcast
1:58 PM 60.1 °F - 40.3 °F 48% 29.96 in 10.0 mi WNW 10.4 mph - N/A   Mostly Cloudy
2:58 PM 60.6 °F - 40.1 °F 47% 29.98 in 10.0 mi West 11.5 mph - N/A   Overcast
3:58 PM 61.0 °F - 40.1 °F 46% 29.99 in 10.0 mi WNW 5.8 mph - N/A   Overcast
4:58 PM 62.6 °F - 39.7 °F 43% 30.00 in 10.0 mi WNW 3.5 mph - N/A   Mostly Cloudy
5:58 PM 58.8 °F - 46.2 °F 63% 30.02 in 10.0 mi NNE 15.0 mph - N/A   Mostly Cloudy
6:58 PM 56.8 °F - 47.3 °F 70% 30.04 in 10.0 mi NNE 8.1 mph - N/A   Overcast
7:58 PM 52.3 °F - 46.9 °F 82% 30.06 in 10.0 mi NE 5.8 mph - N/A   Partly Cloudy
8:58 PM 50.4 °F - 45.1 °F 82% 30.08 in 10.0 mi NNE 8.1 mph - N/A   Clear
9:58 PM 50.0 °F - 45.7 °F 85% 30.08 in 10.0 mi NNE 4.6 mph - N/A   Clear
10:58 PM 47.7 °F - 45.5 °F 92% 30.09 in 10.0 mi North 6.9 mph - N/A   Clear
11:58 PM 47.8 °F - 45.9 °F 93% 30.09 in 10.0 mi NNE 6.9 mph - N/A   Clear